Showing default

AEROCUBE 8C, 41853

Orbit data source: Space-Track

AEROCUBE 8C, 41853 is a payload satellite owned by AERO (US) in SSO that was launched on Fri, 11 Nov 2016 UTC via an ATLAS V 401 launch vehicle from the Air Force Western Test Range (AFWTR). Payload-class satellites include a variety of spacecraft equipped with specific instruments for various scientific and technological missions. These include communications satellites like Starlink; space stations such as the ISS; scientific satellites like the Hubble; Earth observation satellites from companies like Planet Labs, Umbra, and HawkEye 360; GPS; miniature CubeSats for education and research; and military/defense satellites.

Loading next visibility...
Identifier
41853, 2016-067F
Orbit
SSO
Country
Flag of USUS
Related business
Manufacturer
AERO
Mission
Operational Defense Technology
Bus & Motor
CUBESAT 1.5U, Unknown motor
Mass
2 kg wet, 2 kg dry
Launch date (UTC)
2016-11-11 (9 years ago)
Launch vehicle
ATLAS V 401
Launch site
Air Force Western Test Range (AFWTR)
Object type
Payload
Rocket body
Debris
Shape & HBR
Box, 0.1 m
Radar Cross Section
0.025 m², Small (<0.1 m²)

Expand to show TLE details & history
Last TLE update: 8 hours ago

TLE from 8 hours ago
0 AEROCUBE 8C
1 41853U 16067F   25294.81243551  .00011368  00000-0  53122-3 0  9997
2 41853  98.0817 139.7027 0006180 151.4789 208.6783 15.19966358489799
Epoch: 2025-10-21T19:29Z
TLE epoch observation values (Epoch: 2025-10-21T19:29:54.428Z)
Latitude
-0.00003°
Longitude
176.7309°
Altitude
512.746 km
Speed
7.605 km/s
True Right ascension
09h 18m 48s
True Declination
0° 00' 00"
Sunlit
Object was in daylight at epoch
Visualization orbit readout
Latitude
Unknown
Longitude
Unknown
Altitude
Unknown
Speed
Unknown
Apparent Right ascension
Unknown
Apparent Declination
Unknown
Sunlit
N/A
Visualization observer readout
Local Sidereal Time
22:50:35
Azimuth
Unknown
Elevation
Unknown
Doppler factor
Unknown
Orbital elements
Apogee altitude
507.191 km
Perigee altitude
498.686 km
Semi-major axis
6,881.075 km
Eccentricity
0.00062
Inclination
98.0817°
RAAN
139.7027°
Arg. of periapsis
151.4789°
True anomaly
208.64434°
Mean anomaly
208.6783°
Eccentric anomaly
208.66132°
Mean motion
3.80241 °/min
Orbital period
94.68 mins
BSTAR
0.00053122
Loading maneuver chart data...
Computing Atmospheric mass density...
Loading historical data...
Loading historical data...
Loading historical data...
Loading historical data...
Loading historical data...
Loading historical data...
Loading historical data...

Documentation

Showing up to 5 results
|